Flag for Germany Weather past 2 weeks in Wipperfürth, North Rhine-Westphalia, Germany

Now
46 °F

Clear.


Feels Like: 45 °F
Forecast: 49 / 71 °F
Wind: 3 mph from Southeast

Location: Koeln / Bonn


UV Index: 3 (Moderate)

Visibility: 10 mi


Pressure: 30.07 "Hg

Humidity: 87%

Dew point: 43 °F

Location of WipperfürthLocation

Historic Weather in Wipperfürth

°F

Wipperfürth temperature yesterday

Maximum temperature yesterday: 70 °F (at 2:50 PM)
Minimum temperature yesterday: 43 °F (at 6:20 AM)
Average temperature yesterday: 57 °F

Past Weeks' High & Low Weather Summary

 TemperatureHumidityPressure
High72 °F (Apr 20, 3:20 PM)100% (Apr 9, 5:20 AM)30.45 "Hg (Apr 9, 5:20 AM)
Low28 °F (Apr 16, 6:20 AM)26% (Apr 17, 4:20 PM)29.59 "Hg (Apr 21, 3:20 PM)
Average52 °F67%30.04 "Hg
* Reported Apr 9 5:20 AM — Apr 24 5:20 AM, Wipperfürth, Weather by CustomWeather, © 2014

Note: Actual official high and low records may vary slightly from our data, if they occured in-between our weather recording intervals... More about our weather records

Advertising

Historic Weather Conditions — Data for Previous 24 hours

 ConditionsComfort  
Time TempWeatherWind HumidityBarometerVisibility
5:20 AM
Apr 24
50 °FClear.3 mph82%30.09 "Hg10 mi
4:50 AM50 °FClear.3 mph82%30.09 "Hg10 mi
4:20 AM52 °FClear.7 mph77%30.09 "Hg10 mi
3:50 AM50 °FClear.2 mph82%30.09 "Hg10 mi
3:20 AM52 °FClear.3 mph82%30.09 "Hg10 mi
2:50 AM50 °FClear.3 mph88%30.09 "Hg10 mi
2:20 AM48 °FClear.2 mph94%30.09 "Hg10 mi
1:50 AM46 °FClear.3 mph87%30.09 "Hg10 mi
1:20 AM50 °FClear.2 mph82%30.09 "Hg10 mi
12:20 AM46 °FClear.8 mph87%30.09 "Hg10 mi
11:50 PM
Apr 23
50 °FClear.2 mph82%30.09 "Hg10 mi
11:20 PM50 °FClear.3 mph88%30.09 "Hg10 mi
10:50 PM54 °FClear.5 mph72%30.09 "Hg10 mi
10:20 PM55 °FClear.5 mph72%30.09 "Hg10 mi
9:50 PM54 °FClear.3 mph77%30.09 "Hg10 mi
9:20 PM57 °FScattered clouds.5 mph72%30.09 "HgN/A
8:50 PM59 °FScattered showers. Scattered clouds.3 mph63%30.09 "HgN/A
8:20 PM61 °FScattered showers. Partly sunny.1 mph59%30.07 "HgN/A
7:50 PM63 °FScattered showers. Scattered clouds.3 mph52%30.07 "HgN/A
7:20 PM63 °FScattered showers. Scattered clouds.7 mph52%30.07 "HgN/A
6:50 PM64 °FScattered showers. Passing clouds.10 mph46%30.07 "HgN/A
6:20 PM70 °FScattered showers. Passing clouds.10 mph43%30.04 "HgN/A
5:50 PM68 °FPassing clouds.10 mph43%30.07 "HgN/A
5:20 PM70 °FPassing clouds.8 mph38%30.07 "HgN/A
4:50 PM70 °FPassing clouds.9 mph40%30.07 "HgN/A
4:20 PM68 °FScattered clouds.9 mph46%30.07 "HgN/A
3:50 PM70 °FScattered clouds.6 mph43%30.07 "HgN/A
3:20 PM68 °FScattered clouds.6 mph46%30.07 "HgN/A
2:50 PM70 °FScattered clouds.7 mph40%30.07 "HgN/A
2:20 PM68 °FPassing clouds.2 mph43%30.07 "HgN/A
1:50 PM68 °FPassing clouds.5 mph46%30.07 "HgN/A
1:20 PM68 °FPassing clouds.3 mph46%30.09 "HgN/A
12:50 PM68 °FPassing clouds.3 mph46%30.09 "HgN/A
12:20 PM64 °FPassing clouds.5 mph60%30.09 "HgN/A
11:50 AM63 °FPassing clouds.5 mph68%30.09 "HgN/A
11:20 AM61 °FSunny.3 mph72%30.09 "Hg10 mi
10:50 AM59 °FSunny.2 mph68%30.09 "Hg10 mi
10:20 AM57 °FSunny.2 mph82%30.09 "Hg10 mi
9:50 AM54 °FSunny.3 mph88%30.09 "Hg10 mi
9:20 AM54 °FSunny.2 mph88%30.09 "Hg10 mi
8:50 AM52 °FBroken clouds.3 mph94%30.09 "HgN/A
8:20 AM50 °FPartly sunny.3 mph94%30.07 "HgN/A
7:50 AM48 °FScattered showers. Partly sunny.5 mph94%30.09 "HgN/A
7:20 AM48 °FScattered showers. Partly cloudy.6 mph94%30.07 "HgN/A
6:50 AM46 °FScattered showers. Partly cloudy.5 mph100%30.07 "HgN/A
6:20 AM43 °FFog.3 mph100%30.07 "HgN/A
Weather by CustomWeather, © 2014

See weather overview